QPF
0.01 0.02 0.03 0.02 0.02 0.02 0.02 0.02 0.02 0.02 0.02 0.03 0.06 0.09 0.09 0.10 0.11 0.11 0.13 0.12 0.08 0.07 0.07 0.07 0.09 0.09 0.10 0.08 0.06 0.06 0.05 0.05 0.04 0.04 0.04 0.04 0.03 0.03
0.02 0.02 0.03 0.02 0.02 0.02 0.02 0.02 0.02 0.03 0.02 0.01 0.03 0.07 0.12 0.12 0.11 0.11 0.12 0.15 0.11 0.09 0.08 0.08 0.08 0.08 0.09 0.09 0.08 0.06 0.05 0.04 0.03 0.03 0.02 0.02 0.02 0.02
0.02 0.02 0.02 0.02 0.03 0.03 0.03 0.03 0.03 0.03 0.03 0.02 0.01 0.03 0.07 0.12 0.13 0.13 0.14 0.16 0.14 0.10 0.09 0.09 0.09 0.08 0.08 0.08 0.07 0.06 0.06 0.05 0.04 0.03 0.02 0.02 0.01 0.01
0.02 0.02 0.02 0.02 0.03 0.02 0.02 0.02 0.03 0.03 0.03 0.02 0.02 0.02 0.04 0.06 0.12 0.11 0.13 0.16 0.18 0.14 0.11 0.09 0.09 0.10 0.09 0.08 0.07 0.06 0.06 0.05 0.04 0.04 0.03 0.02 0.02 0.02
0.02 0.02 0.02 0.03 0.03 0.03 0.04 0.03 0.03 0.02 0.03 0.02 0.02 0.02 0.03 0.04 0.06 0.09 0.11 0.13 0.15 0.18 0.16 0.13 0.11 0.10 0.11 0.10 0.09 0.08 0.07 0.05 0.05 0.04 0.04 0.03 0.03 0.02
0.03 0.03 0.02 0.02 0.03 0.04 0.04 0.04 0.03 0.04 0.04 0.03 0.02 0.03 0.03 0.05 0.07 0.08 0.10 0.12 0.12 0.12 0.16 0.16 0.14 0.13 0.12 0.12 0.11 0.10 0.09 0.08 0.06 0.05 0.04 0.04 0.03 0.02
0.02 0.03 0.02 0.02 0.02 0.02 0.02 0.03 0.05 0.06 0.05 0.04 0.03 0.03 0.04 0.05 0.08 0.09 0.10 0.13 0.14 0.14 0.15 0.14 0.14 0.13 0.12 0.11 0.11 0.10 0.08 0.07 0.07 0.06 0.05 0.03 0.03 0.02
0.01 0.02 0.02 0.01 0.01 0.00 0.00 0.00 0.01 0.02 0.04 0.05 0.05 0.04 0.05 0.06 0.08 0.11 0.14 0.16 0.17 0.17 0.20 0.21 0.18 0.16 0.14 0.11 0.09 0.08 0.07 0.06 0.05 0.05 0.04 0.03 0.03 0.02
0.01 0.02 0.01 0.01 0.02 0.03 0.03 0.01 0.01 0.00 0.00 0.02 0.03 0.04 0.06 0.07 0.08 0.11 0.13 0.16 0.18 0.21 0.22 0.25 0.27 0.25 0.18 0.13 0.12 0.10 0.08 0.06 0.04 0.03 0.03 0.03 0.02 0.01
0.01 0.02 0.04 0.04 0.03 0.05 0.05 0.06 0.05 0.04 0.02 0.01 0.01 0.02 0.03 0.07 0.10 0.11 0.16 0.17 0.18 0.24 0.28 0.24 0.24 0.24 0.21 0.18 0.15 0.12 0.09 0.06 0.04 0.03 0.02 0.02 0.01 0.01
0.03 0.04 0.06 0.07 0.05 0.02 0.03 0.03 0.04 0.04 0.02 0.01 0.01 0.01 0.01 0.02 0.05 0.08 0.14 0.18 0.16 0.19 0.25 0.24 0.21 0.19 0.16 0.15 0.13 0.12 0.09 0.07 0.05 0.03 0.02 0.02 0.01 0.01
0.05 0.07 0.04 0.03 0.02 0.01 0.03 0.04 0.04 0.03 0.05 0.05 0.05 0.03 0.01 0.01 0.01 0.04 0.09 0.16 0.18 0.20 0.21 0.21 0.18 0.18 0.19 0.15 0.10 0.07 0.06 0.06 0.05 0.04 0.03 0.02 0.02 0.01
0.04 0.06 0.07 0.04 0.01 0.00 0.01 0.03 0.03 0.04 0.06 0.08 0.10 0.10 0.09 0.06 0.04 0.03 0.05 0.10 0.14 0.17 0.19 0.19 0.17 0.15 0.13 0.13 0.11 0.07 0.04 0.03 0.03 0.03 0.02 0.02 0.02 0.02
0.02 0.05 0.07 0.03 0.00 0.00 0.00 0.00 0.00 0.01 0.02 0.05 0.06 0.08 0.09 0.09 0.07 0.06 0.06 0.08 0.12 0.14 0.17 0.19 0.20 0.16 0.11 0.08 0.09 0.09 0.06 0.04 0.02 0.02 0.02 0.02 0.02 0.02
0.01 0.02 0.02 0.00 0.00 0.01 0.01 0.00 0.00 0.01 0.02 0.04 0.05 0.05 0.07 0.10 0.12 0.13 0.13 0.13 0.15 0.15 0.15 0.17 0.20 0.19 0.15 0.10 0.07 0.07 0.07 0.05 0.03 0.02 0.02 0.01 0.00 0.01
0.03 0.03 0.02 0.01 0.01 0.02 0.02 0.01 0.01 0.02 0.03 0.05 0.06 0.07 0.08 0.11 0.13 0.14 0.15 0.15 0.16 0.17 0.17 0.18 0.22 0.23 0.18 0.13 0.10 0.08 0.07 0.06 0.04 0.03 0.02 0.02 0.01 0.01
0.05 0.05 0.05 0.07 0.07 0.06 0.07 0.08 0.07 0.06 0.05 0.05 0.08 0.10 0.10 0.11 0.12 0.14 0.16 0.16 0.15 0.16 0.16 0.19 0.22 0.26 0.25 0.18 0.12 0.10 0.09 0.07 0.04 0.03 0.03 0.02 0.02 0.01
0.01 0.01 0.03 0.06 0.09 0.11 0.12 0.12 0.11 0.11 0.10 0.10 0.10 0.10 0.11 0.12 0.13 0.14 0.15 0.14 0.14 0.15 0.16 0.16 0.21 0.24 0.26 0.24 0.16 0.10 0.08 0.08 0.06 0.04 0.02 0.02 0.02 0.01
0.01 0.01 0.03 0.06 0.08 0.10 0.12 0.12 0.12 0.12 0.12 0.12 0.12 0.12 0.13 0.14 0.15 0.15 0.15 0.13 0.13 0.15 0.16 0.16 0.17 0.18 0.17 0.17 0.16 0.10 0.08 0.06 0.07 0.05 0.03 0.02 0.02 0.01
0.02 0.03 0.05 0.08 0.10 0.11 0.11 0.12 0.13 0.14 0.13 0.11 0.12 0.13 0.14 0.14 0.15 0.15 0.15 0.13 0.12 0.14 0.16 0.15 0.14 0.13 0.13 0.11 0.11 0.09 0.07 0.07 0.06 0.05 0.04 0.02 0.02 0.02
0.06 0.07 0.08 0.08 0.10 0.11 0.11 0.11 0.12 0.13 0.13 0.12 0.11 0.12 0.14 0.14 0.13 0.12 0.14 0.14 0.14 0.15 0.13 0.11 0.10 0.13 0.17 0.19 0.16 0.12 0.08 0.08 0.09 0.07 0.05 0.04 0.03 0.02
0.06 0.06 0.07 0.08 0.09 0.10 0.11 0.11 0.11 0.12 0.13 0.14 0.13 0.12 0.12 0.12 0.11 0.11 0.11 0.12 0.11 0.12 0.14 0.15 0.16 0.14 0.16 0.16 0.15 0.13 0.10 0.09 0.11 0.15 0.14 0.08 0.04 0.02
0.06 0.06 0.07 0.07 0.08 0.09 0.10 0.10 0.11 0.12 0.12 0.14 0.15 0.13 0.12 0.12 0.11 0.11 0.12 0.12 0.11 0.12 0.16 0.17 0.17 0.14 0.12 0.14 0.15 0.14 0.11 0.09 0.09 0.12 0.14 0.12 0.07 0.04
MSLP
1014.54 1014.53 1014.55 1014.58 1014.61 1014.62 1014.59 1014.52 1014.41 1014.25 1014.07 1013.87 1013.66 1013.44 1013.22 1012.99 1012.74 1012.50 1012.25 1012.03 1011.85 1011.75 1011.75 1011.86 1012.11 1012.50 1013.00 1013.61 1014.28 1014.99 1015.71 1016.40 1017.04 1017.64 1018.18 1018.68 1019.13 1019.54
1014.15 1014.11 1014.09 1014.09 1014.09 1014.09 1014.07 1014.03 1013.97 1013.88 1013.77 1013.64 1013.48 1013.29 1013.08 1012.83 1012.54 1012.24 1011.92 1011.61 1011.35 1011.16 1011.08 1011.13 1011.33 1011.67 1012.16 1012.75 1013.44 1014.16 1014.90 1015.62 1016.30 1016.93 1017.50 1018.01 1018.48 1018.90
1013.76 1013.68 1013.63 1013.59 1013.56 1013.54 1013.53 1013.51 1013.48 1013.45 1013.40 1013.33 1013.22 1013.08 1012.89 1012.64 1012.35 1012.01 1011.64 1011.27 1010.94 1010.68 1010.53 1010.51 1010.64 1010.94 1011.38 1011.95 1012.62 1013.34 1014.09 1014.83 1015.53 1016.19 1016.78 1017.32 1017.80 1018.23
1013.37 1013.28 1013.19 1013.12 1013.06 1013.02 1013.00 1012.99 1012.99 1013.00 1012.99 1012.98 1012.93 1012.83 1012.68 1012.46 1012.17 1011.82 1011.43 1011.03 1010.65 1010.33 1010.11 1010.02 1010.09 1010.32 1010.70 1011.22 1011.85 1012.55 1013.28 1014.02 1014.74 1015.41 1016.03 1016.59 1017.09 1017.55
1012.99 1012.88 1012.77 1012.68 1012.60 1012.55 1012.52 1012.51 1012.52 1012.55 1012.58 1012.61 1012.61 1012.56 1012.45 1012.26 1012.01 1011.68 1011.29 1010.88 1010.48 1010.12 1009.85 1009.70 1009.70 1009.85 1010.15 1010.60 1011.17 1011.82 1012.52 1013.24 1013.96 1014.64 1015.28 1015.86 1016.39 1016.87
1012.57 1012.46 1012.36 1012.26 1012.17 1012.11 1012.07 1012.06 1012.08 1012.12 1012.18 1012.23 1012.26 1012.26 1012.19 1012.06 1011.85 1011.56 1011.21 1010.82 1010.43 1010.06 1009.76 1009.56 1009.48 1009.56 1009.77 1010.14 1010.63 1011.21 1011.86 1012.55 1013.25 1013.93 1014.58 1015.18 1015.74 1016.25
1012.11 1012.01 1011.91 1011.82 1011.74 1011.68 1011.64 1011.63 1011.65 1011.69 1011.75 1011.82 1011.88 1011.91 1011.89 1011.81 1011.66 1011.44 1011.15 1010.82 1010.46 1010.11 1009.81 1009.58 1009.46 1009.46 1009.60 1009.88 1010.28 1010.79 1011.38 1012.02 1012.69 1013.36 1014.01 1014.63 1015.22 1015.76
1011.58 1011.50 1011.42 1011.35 1011.29 1011.24 1011.21 1011.20 1011.21 1011.25 1011.31 1011.38 1011.45 1011.50 1011.53 1011.51 1011.43 1011.29 1011.09 1010.83 1010.54 1010.24 1009.97 1009.75 1009.60 1009.56 1009.64 1009.84 1010.17 1010.60 1011.12 1011.71 1012.34 1013.00 1013.65 1014.28 1014.88 1015.45
1010.99 1010.93 1010.87 1010.83 1010.79 1010.76 1010.74 1010.73 1010.74 1010.77 1010.81 1010.88 1010.95 1011.03 1011.09 1011.12 1011.12 1011.07 1010.97 1010.81 1010.62 1010.40 1010.19 1010.00 1009.87 1009.82 1009.86 1010.01 1010.28 1010.65 1011.12 1011.66 1012.25 1012.88 1013.52 1014.15 1014.76 1015.35
1010.35 1010.30 1010.27 1010.26 1010.25 1010.24 1010.24 1010.23 1010.24 1010.25 1010.28 1010.33 1010.39 1010.48 1010.56 1010.65 1010.72 1010.75 1010.75 1010.71 1010.63 1010.52 1010.40 1010.29 1010.20 1010.17 1010.21 1010.35 1010.58 1010.91 1011.34 1011.84 1012.40 1013.00 1013.62 1014.24 1014.85 1015.43
1009.70 1009.67 1009.66 1009.67 1009.69 1009.70 1009.71 1009.71 1009.71 1009.70 1009.71 1009.74 1009.79 1009.87 1009.97 1010.09 1010.21 1010.33 1010.43 1010.50 1010.54 1010.55 1010.53 1010.51 1010.50 1010.53 1010.60 1010.75 1010.98 1011.30 1011.70 1012.17 1012.70 1013.27 1013.87 1014.47 1015.06 1015.63
1009.07 1009.05 1009.06 1009.09 1009.12 1009.16 1009.17 1009.17 1009.16 1009.14 1009.12 1009.12 1009.15 1009.22 1009.32 1009.46 1009.62 1009.80 1009.99 1010.16 1010.31 1010.43 1010.53 1010.61 1010.69 1010.79 1010.92 1011.11 1011.36 1011.68 1012.08 1012.53 1013.04 1013.58 1014.15 1014.73 1015.29 1015.84
1008.49 1008.47 1008.49 1008.53 1008.57 1008.61 1008.64 1008.63 1008.61 1008.57 1008.53 1008.50 1008.50 1008.54 1008.64 1008.78 1008.97 1009.20 1009.44 1009.69 1009.93 1010.15 1010.35 1010.53 1010.71 1010.89 1011.09 1011.33 1011.62 1011.96 1012.36 1012.81 1013.30 1013.82 1014.35 1014.90 1015.43 1015.95
1007.96 1007.94 1007.95 1007.99 1008.04 1008.08 1008.09 1008.08 1008.04 1007.99 1007.92 1007.87 1007.85 1007.87 1007.95 1008.09 1008.29 1008.53 1008.81 1009.11 1009.42 1009.71 1009.99 1010.26 1010.52 1010.77 1011.05 1011.34 1011.67 1012.04 1012.45 1012.90 1013.38 1013.87 1014.38 1014.89 1015.38 1015.87
1007.47 1007.44 1007.45 1007.47 1007.50 1007.53 1007.53 1007.51 1007.45 1007.38 1007.30 1007.23 1007.19 1007.20 1007.27 1007.40 1007.60 1007.85 1008.15 1008.47 1008.81 1009.16 1009.49 1009.82 1010.14 1010.46 1010.78 1011.13 1011.50 1011.89 1012.32 1012.77 1013.23 1013.71 1014.19 1014.66 1015.13 1015.59
1007.00 1006.95 1006.93 1006.93 1006.93 1006.93 1006.92 1006.88 1006.81 1006.73 1006.65 1006.57 1006.53 1006.54 1006.60 1006.73 1006.92 1007.17 1007.48 1007.81 1008.17 1008.53 1008.89 1009.25 1009.61 1009.97 1010.34 1010.72 1011.12 1011.54 1011.97 1012.42 1012.88 1013.34 1013.80 1014.24 1014.68 1015.12
1006.50 1006.42 1006.36 1006.32 1006.29 1006.26 1006.22 1006.16 1006.09 1006.01 1005.94 1005.88 1005.85 1005.87 1005.94 1006.08 1006.28 1006.53 1006.83 1007.17 1007.52 1007.89 1008.26 1008.64 1009.01 1009.39 1009.78 1010.19 1010.61 1011.04 1011.49 1011.94 1012.39 1012.84 1013.28 1013.71 1014.13 1014.55
1005.94 1005.82 1005.72 1005.63 1005.56 1005.49 1005.42 1005.35 1005.28 1005.22 1005.16 1005.13 1005.13 1005.18 1005.29 1005.45 1005.66 1005.93 1006.23 1006.57 1006.92 1007.29 1007.66 1008.03 1008.41 1008.80 1009.20 1009.61 1010.04 1010.49 1010.95 1011.40 1011.86 1012.30 1012.73 1013.16 1013.57 1013.99
1005.31 1005.14 1004.99 1004.85 1004.73 1004.63 1004.54 1004.46 1004.40 1004.35 1004.33 1004.34 1004.39 1004.49 1004.64 1004.83 1005.08 1005.36 1005.68 1006.02 1006.37 1006.73 1007.10 1007.47 1007.85 1008.24 1008.64 1009.07 1009.51 1009.97 1010.44 1010.90 1011.37 1011.82 1012.26 1012.68 1013.10 1013.53
1004.62 1004.40 1004.19 1004.01 1003.85 1003.71 1003.61 1003.52 1003.47 1003.46 1003.47 1003.53 1003.64 1003.79 1003.99 1004.23 1004.51 1004.83 1005.16 1005.51 1005.86 1006.23 1006.59 1006.96 1007.34 1007.74 1008.15 1008.59 1009.04 1009.52 1010.00 1010.49 1010.97 1011.44 1011.89 1012.33 1012.77 1013.21
1003.89 1003.62 1003.37 1003.15 1002.95 1002.80 1002.68 1002.60 1002.57 1002.58 1002.64 1002.75 1002.91 1003.11 1003.36 1003.64 1003.96 1004.30 1004.65 1005.01 1005.37 1005.74 1006.11 1006.48 1006.87 1007.27 1007.70 1008.16 1008.64 1009.13 1009.65 1010.16 1010.67 1011.16 1011.64 1012.11 1012.57 1013.03
1003.18 1002.87 1002.59 1002.33 1002.12 1001.96 1001.84 1001.78 1001.77 1001.81 1001.90 1002.05 1002.25 1002.49 1002.77 1003.08 1003.42 1003.77 1004.14 1004.50 1004.87 1005.24 1005.62 1006.00 1006.40 1006.82 1007.28 1007.76 1008.26 1008.79 1009.34 1009.88 1010.43 1010.96 1011.47 1011.97 1012.46 1012.94
1002.54 1002.21 1001.91 1001.64 1001.43 1001.27 1001.16 1001.12 1001.13 1001.20 1001.32 1001.49 1001.70 1001.96 1002.25 1002.57 1002.91 1003.25 1003.61 1003.98 1004.34 1004.71 1005.09 1005.49 1005.90 1006.35 1006.83 1007.34 1007.88 1008.45 1009.03 1009.61 1010.19 1010.76 1011.31 1011.84 1012.36 1012.87
Thickness
5653 5653 5651 5652 5653 5654 5655 5654 5651 5650 5656 5665 5673 5681 5685 5688 5691 5694 5698 5701 5704 5707 5710 5712 5714 5716 5717 5717 5718 5718 5718 5719 5719 5719 5720 5720 5720 5719
5646 5644 5643 5644 5645 5646 5647 5648 5648 5647 5649 5657 5663 5670 5676 5681 5683 5687 5691 5695 5698 5702 5705 5707 5710 5712 5713 5714 5715 5716 5717 5718 5718 5718 5719 5719 5719 5719
5639 5638 5637 5637 5636 5637 5638 5639 5641 5642 5642 5649 5655 5661 5666 5670 5674 5678 5682 5687 5692 5696 5699 5702 5705 5707 5710 5711 5712 5713 5715 5716 5716 5717 5718 5718 5719 5719
5632 5630 5629 5629 5629 5629 5629 5630 5632 5634 5635 5637 5643 5649 5655 5661 5664 5669 5675 5680 5685 5689 5693 5697 5700 5703 5705 5707 5709 5711 5712 5714 5715 5716 5716 5717 5718 5718
5624 5622 5621 5620 5620 5620 5620 5622 5623 5627 5629 5631 5635 5640 5646 5652 5656 5660 5666 5671 5677 5682 5686 5690 5694 5697 5700 5703 5705 5707 5709 5711 5712 5713 5714 5715 5716 5716
5617 5615 5613 5613 5612 5612 5612 5613 5615 5616 5618 5621 5625 5630 5636 5642 5646 5649 5654 5661 5667 5673 5678 5682 5686 5690 5694 5697 5700 5703 5705 5707 5709 5710 5711 5712 5713 5714
5609 5607 5607 5607 5606 5605 5605 5605 5605 5606 5607 5610 5614 5620 5625 5630 5634 5640 5644 5650 5657 5663 5668 5673 5678 5682 5686 5690 5693 5697 5700 5702 5704 5706 5707 5708 5710 5711
5601 5599 5599 5599 5600 5599 5599 5598 5597 5596 5598 5599 5603 5608 5614 5619 5625 5630 5634 5638 5645 5654 5658 5663 5670 5674 5679 5684 5688 5691 5694 5696 5699 5701 5702 5704 5705 5706
5594 5592 5592 5594 5594 5594 5592 5591 5590 5590 5590 5590 5594 5598 5603 5609 5613 5618 5623 5628 5636 5644 5648 5653 5660 5665 5670 5675 5680 5684 5687 5690 5692 5695 5696 5698 5699 5701
5588 5586 5585 5585 5585 5584 5583 5583 5583 5585 5585 5585 5588 5592 5596 5600 5605 5609 5613 5620 5628 5635 5640 5643 5649 5654 5659 5663 5669 5673 5678 5681 5685 5687 5689 5690 5692 5694
5585 5583 5582 5580 5578 5576 5574 5574 5574 5576 5579 5581 5584 5587 5590 5593 5596 5599 5603 5608 5615 5624 5632 5636 5640 5643 5648 5653 5657 5662 5667 5672 5676 5679 5681 5683 5685 5687
5581 5579 5577 5574 5572 5569 5566 5565 5565 5567 5569 5573 5575 5578 5581 5585 5589 5592 5597 5600 5607 5615 5624 5628 5631 5634 5637 5642 5646 5651 5656 5661 5665 5669 5673 5676 5678 5681
5574 5573 5571 5568 5564 5561 5558 5558 5557 5557 5558 5561 5564 5569 5574 5578 5583 5587 5592 5596 5602 5608 5616 5620 5623 5627 5630 5633 5637 5642 5648 5651 5654 5658 5663 5667 5671 5676
5567 5565 5563 5559 5555 5552 5550 5550 5548 5546 5548 5551 5555 5561 5566 5571 5577 5583 5588 5593 5598 5604 5609 5614 5617 5622 5624 5627 5631 5634 5638 5643 5648 5651 5654 5658 5662 5668
5562 5560 5554 5550 5546 5544 5542 5541 5539 5538 5540 5544 5549 5555 5561 5567 5572 5577 5582 5586 5591 5597 5602 5607 5612 5616 5620 5624 5627 5629 5632 5635 5640 5644 5647 5651 5656 5661
5556 5554 5550 5546 5542 5541 5540 5538 5535 5536 5538 5541 5545 5550 5555 5560 5565 5570 5574 5578 5581 5587 5595 5600 5605 5609 5612 5618 5621 5624 5628 5632 5635 5638 5642 5645 5650 5655
5549 5548 5548 5547 5544 5542 5540 5539 5538 5536 5535 5538 5540 5544 5549 5554 5559 5564 5567 5571 5575 5580 5585 5592 5597 5602 5606 5611 5614 5618 5623 5626 5630 5633 5636 5639 5644 5650
5541 5545 5546 5546 5544 5542 5539 5538 5537 5537 5536 5537 5539 5541 5545 5549 5554 5558 5561 5565 5570 5575 5580 5585 5588 5592 5595 5601 5608 5613 5616 5621 5624 5627 5631 5634 5638 5644
5540 5544 5546 5546 5544 5542 5540 5538 5537 5538 5537 5537 5538 5540 5543 5546 5549 5553 5556 5561 5565 5571 5576 5580 5583 5587 5591 5595 5600 5606 5611 5614 5617 5620 5625 5630 5634 5638
5547 5547 5547 5546 5544 5542 5540 5539 5538 5537 5536 5536 5537 5539 5541 5543 5546 5550 5553 5557 5562 5566 5570 5575 5579 5585 5590 5594 5595 5599 5604 5609 5612 5614 5618 5622 5625 5629
5553 5551 5549 5548 5546 5543 5541 5539 5538 5537 5536 5535 5536 5538 5540 5542 5545 5548 5551 5554 5558 5562 5566 5571 5577 5581 5585 5588 5588 5592 5596 5600 5607 5610 5612 5614 5617 5620
5553 5551 5550 5548 5546 5543 5540 5539 5538 5537 5536 5535 5536 5537 5539 5541 5544 5546 5549 5552 5556 5560 5565 5569 5572 5575 5579 5582 5586 5587 5589 5591 5594 5599 5603 5610 5615 5618
5552 5550 5548 5547 5546 5544 5541 5539 5538 5537 5536 5535 5536 5537 5539 5540 5543 5545 5548 5551 5555 5559 5562 5564 5568 5571 5575 5578 5581 5583 5584 5586 5588 5589 5592 5598 5607 5613